Fairbanks Eiels, AK

7:27 AM AKDT on July 23, 2018 (GMT -0800)
Eielson Air Force Base

Weather History for PAEI - April, 2018

Change the Weather History Date:

Monday, April 16, 2018

  Actual Average Record
Temperature  
Mean Temperature 32 °F -  
Max Temperature 47 °F 42 °F 61 °F (1993)
Min Temperature 17 °F 21 °F -12 °F (1972)
Degree Days  
Heating Degree Days 33    
Moisture  
Dew Point 7 °F    
Average Humidity 38    
Maximum Humidity 66    
Minimum Humidity 15    
Precipitation  
Precipitation 0.00 in - - ()
Snow  
Snow 0.00 in - - ()
Snow Depth 12.00 in    
Sea Level Pressure  
Sea Level Pressure 29.92 in    
Wind  
Wind Speed 7 mph (NNE)    
Max Wind Speed 13 mph    
Max Gust Speed -    
Visibility 10 miles    
Events      
Averages and records for this station are not official NWS values.
T = Trace of Precipitation, MM = Missing Value Source: NWS Daily Summary

Daily Weather History Graph

Daily Weather History Graph

Search for Another Location

Airport or City:

Astronomy

Apr. 16, 2018 Rise Set
Actual Time 6:09 AM AKDT 9:28 PM AKDT
Civil Twilight 5:12 AM AKDT 10:26 PM AKDT
Nautical Twilight 3:44 AM AKDT 11:57 PM AKDT
Astronomical Twilight Sun does not set Sun does not set
Moon 7:13 AM AKDT (4/16) 10:28 PM AKDT (4/16)
Length of Visible Light 17h 14m
Length of Day
15h 18m
New Moon, 1% of the Moon is Illuminated
Apr 16
New Moon
Apr 22
First Quarter
Apr 29
Full
May 7
Last Quarter
May 15
New

Hourly Weather History & Observations

Time (AKDT) Temp. Windchill Dew Point Humidity Pressure Visibility Wind Dir Wind Speed Gust Speed Precip Events Conditions
12:56 AM 23.7 °F 14.7 °F 9.9 °F 56% 30.10 in 10.0 mi North 8.1 mph - N/A   Clear
1:56 AM 24.6 °F 15.1 °F 6.8 °F 47% 30.09 in 10.0 mi NNE 9.2 mph - N/A   Clear
2:56 AM 23.4 °F 16.2 °F 6.1 °F 48% 30.07 in 10.0 mi North 5.8 mph - N/A   Clear
3:56 AM 17.4 °F 6.2 °F 5.5 °F 60% 30.05 in 10.0 mi North 9.2 mph - N/A   Clear
4:56 AM 20.5 °F 8.0 °F 3.0 °F 47% 30.02 in 10.0 mi North 12.7 mph - N/A   Clear
5:56 AM 19.4 °F 8.6 °F 3.2 °F 49% 29.98 in 10.0 mi North 9.2 mph - N/A   Clear
6:56 AM 21.4 °F 10.4 °F 2.8 °F 45% 29.99 in 10.0 mi NNE 10.4 mph - N/A   Clear
7:11 AM 19.4 °F 8.6 °F 5.0 °F 54% 29.99 in 10.0 mi NNE 9.2 mph - N/A   Clear
7:56 AM 24.1 °F 14.4 °F 3.2 °F 41% 29.98 in 10.0 mi North 9.2 mph - N/A   Clear
8:11 AM 24.8 °F 16.1 °F 3.2 °F 40% 29.97 in 10.0 mi North 8.1 mph - N/A   Clear
8:56 AM 26.1 °F 19.4 °F 5.0 °F 41% 29.97 in 10.0 mi North 5.8 mph - N/A   Clear
9:26 AM 30.2 °F 21.9 °F 5.0 °F 34% 29.95 in 10.0 mi North 9.2 mph - N/A   Clear
9:56 AM 31.8 °F 25.4 °F 5.4 °F 33% 29.95 in 10.0 mi NNE 6.9 mph - N/A   Clear
10:56 AM 37.6 °F 30.0 °F 5.7 °F 27% 29.93 in 10.0 mi ESE 11.5 mph - N/A   Clear
11:56 AM 39.7 °F 33.7 °F 6.8 °F 26% 29.92 in 10.0 mi ESE 9.2 mph - N/A   Clear
12:56 PM 41.4 °F 36.2 °F 6.3 °F 24% 29.90 in 10.0 mi East 8.1 mph - N/A   Clear
1:41 PM 42.8 °F 39.3 °F 8.6 °F 25% 29.89 in 10.0 mi SE 5.8 mph - N/A   Clear
1:56 PM 44.1 °F 40.1 °F 10.4 °F 25% 29.88 in 10.0 mi SSE 6.9 mph - N/A   Clear
2:56 PM 45.1 °F 42.8 °F 10.4 °F 24% 29.87 in 10.0 mi South 4.6 mph - N/A   Clear
3:56 PM 44.6 °F 43.1 °F 5.9 °F 20% 29.86 in 10.0 mi North 3.5 mph - N/A   Clear
4:56 PM 44.4 °F 42.0 °F 9.0 °F 24% 29.85 in 10.0 mi NNW 4.6 mph - N/A   Clear
5:56 PM 47.1 °F - 1.8 °F 15% 29.83 in 10.0 mi Calm Calm - N/A   Clear
6:56 PM 45.5 °F 42.5 °F 8.8 °F 22% 29.82 in 10.0 mi West 5.8 mph - N/A   Clear
7:56 PM 44.8 °F 41.6 °F 11.1 °F 26% 29.82 in 10.0 mi WSW 5.8 mph - N/A   Clear
8:56 PM 40.8 °F - 10.2 °F 29% 29.82 in 10.0 mi Calm Calm - N/A   Clear
9:56 PM 31.6 °F - 14.2 °F 49% 29.82 in 10.0 mi Calm Calm - N/A   Clear
10:26 PM 30.2 °F - 12.2 °F 47% 29.82 in - Calm Calm - N/A   Clear
10:56 PM 28.2 °F - 14.9 °F 57% 29.82 in 10.0 mi Calm Calm - N/A   Clear
11:56 PM 25.7 °F - 15.6 °F 66% 29.83 in 10.0 mi Calm Calm - N/A   Clear